When you browse on this site, cookies collect data to enhance your experience and personalize the content and advertising you see.
Visit our Privacy Policy to learn more. By continuing to use the site, you agree to this use of cookies and data.
  • En España
  • Lista de países
  • Para 7 días
  • Temperatura del agua
  • Mapa Satelital
  • El tiempo en el mapa
  • Informadores
  • user-avatar
    Iniciar sesión

    Tiempo cada hora Bliznaki

    Hoy, 17 Julio, Miércoles

    Tiempo Temperatura Precipitaciones Viento Presión Humedad
    00:00 +11°C° 0 mm 1 mps 734 mmHg 92%
    01:00 +10°C° 0 mm 0 mps 734 mmHg 92%
    02:00 +10°C° 0 mm 0 mps 734 mmHg 92%
    03:00 +11°C° 0 mm 1 mps 734 mmHg 91%
    04:00 +12°C° 0 mm 2 mps 734 mmHg 91%
    05:00 +12°C° 0 mm 2 mps 734 mmHg 90%
    06:00 +13°C° 0 mm 2 mps 733 mmHg 87%
    07:00 +14°C° 0 mm 1 mps 733 mmHg 84%
    08:00 +15°C° 0 mm 1 mps 733 mmHg 79%
    09:00 +16°C° 0.2 mm 1 mps 733 mmHg 78%
    10:00 +18°C° 0.2 mm 1 mps 733 mmHg 77%
    11:00 +18°C° 0.2 mm 2 mps 733 mmHg 75%
    12:00 +19°C° 0.1 mm 1 mps 733 mmHg 72%
    13:00 +20°C° 0.1 mm 1 mps 733 mmHg 68%
    14:00 +21°C° 0.1 mm 1 mps 732 mmHg 64%
    15:00 +20°C° 0.1 mm 1 mps 732 mmHg 67%
    16:00 +20°C° 0.1 mm 1 mps 732 mmHg 69%
    17:00 +20°C° 0.1 mm 1 mps 732 mmHg 71%
    18:00 +19°C° 0.3 mm 1 mps 732 mmHg 76%
    19:00 +16°C° 0.3 mm 1 mps 732 mmHg 80%
    20:00 +15°C° 0.3 mm 1 mps 732 mmHg 85%
    21:00 +15°C° 0.1 mm 1 mps 732 mmHg 85%
    22:00 +15°C° 0.1 mm 1 mps 732 mmHg 85%
    23:00 +15°C° 0.1 mm 1 mps 732 mmHg 86%

    Mañana, 18 Julio, Jueves

    Tiempo Temperatura Precipitaciones Viento Presión Humedad
    00:00 +14°C° 0.2 mm 1 mps 732 mmHg 88%
    01:00 +14°C° 0.2 mm 1 mps 731 mmHg 89%
    02:00 +14°C° 0.2 mm 2 mps 731 mmHg 91%
    03:00 +14°C° 0.2 mm 1 mps 731 mmHg 93%
    04:00 +14°C° 0.2 mm 1 mps 731 mmHg 94%
    05:00 +13°C° 0.2 mm 0 mps 731 mmHg 95%
    06:00 +14°C° 0.4 mm 1 mps 731 mmHg 94%
    07:00 +15°C° 0.4 mm 1 mps 731 mmHg 93%
    08:00 +15°C° 0.4 mm 1 mps 731 mmHg 92%
    09:00 +15°C° 0.4 mm 2 mps 731 mmHg 93%
    10:00 +14°C° 0.4 mm 3 mps 731 mmHg 94%
    11:00 +14°C° 0.4 mm 3 mps 731 mmHg 94%
    12:00 +14°C° 0.2 mm 3 mps 731 mmHg 94%
    13:00 +14°C° 0.2 mm 3 mps 731 mmHg 93%
    14:00 +14°C° 0.2 mm 4 mps 731 mmHg 92%
    15:00 +16°C° 0.2 mm 3 mps 731 mmHg 92%
    16:00 +16°C° 0.2 mm 3 mps 731 mmHg 92%
    17:00 +16°C° 0.2 mm 3 mps 731 mmHg 91%
    18:00 +15°C° 0.4 mm 2 mps 731 mmHg 93%
    19:00 +15°C° 0.4 mm 2 mps 731 mmHg 95%
    20:00 +14°C° 0.4 mm 2 mps 731 mmHg 97%
    21:00 +14°C° 0.2 mm 2 mps 731 mmHg 97%
    22:00 +13°C° 0.2 mm 3 mps 732 mmHg 97%
    23:00 +13°C° 0.2 mm 3 mps 732 mmHg 97%

    Pasado mañana, 19 Julio, Viernes

    Tiempo Temperatura Precipitaciones Viento Presión Humedad
    00:00 +13°C° 1 mm 3 mps 732 mmHg 97%
    01:00 +13°C° 1 mm 4 mps 732 mmHg 97%
    02:00 +13°C° 1 mm 4 mps 732 mmHg 97%
    03:00 +13°C° 0.4 mm 4 mps 732 mmHg 97%
    04:00 +13°C° 0.4 mm 5 mps 732 mmHg 97%
    05:00 +13°C° 0.4 mm 5 mps 732 mmHg 97%
    06:00 +14°C° 0.2 mm 5 mps 733 mmHg 96%
    07:00 +14°C° 0.2 mm 5 mps 733 mmHg 96%
    08:00 +14°C° 0.2 mm 6 mps 733 mmHg 95%
    09:00 +14°C° 0.1 mm 6 mps 734 mmHg 94%
    10:00 +14°C° 0.1 mm 6 mps 734 mmHg 93%
    11:00 +14°C° 0.1 mm 5 mps 734 mmHg 92%
    12:00 +15°C° 0.5 mm 6 mps 735 mmHg 90%
    13:00 +16°C° 0.5 mm 6 mps 735 mmHg 88%
    14:00 +17°C° 0.5 mm 6 mps 735 mmHg 86%
    15:00 +16°C° 0.3 mm 6 mps 735 mmHg 86%
    16:00 +16°C° 0.3 mm 5 mps 736 mmHg 87%
    17:00 +15°C° 0.3 mm 5 mps 736 mmHg 87%
    18:00 +15°C° 0 mm 4 mps 736 mmHg 88%
    19:00 +15°C° 0 mm 4 mps 736 mmHg 89%
    20:00 +14°C° 0 mm 3 mps 737 mmHg 89%
    21:00 +14°C° 0 mm 3 mps 737 mmHg 90%
    22:00 +14°C° 0 mm 3 mps 737 mmHg 90%
    23:00 +14°C° 0 mm 4 mps 738 mmHg 91%

    20 Julio, Sábado

    Tiempo Temperatura Precipitaciones Viento Presión Humedad
    00:00 +13°C° 0 mm 4 mps 738 mmHg 92%
    01:00 +13°C° 0 mm 4 mps 738 mmHg 93%
    02:00 +12°C° 0 mm 4 mps 738 mmHg 95%
    03:00 +12°C° 0 mm 4 mps 738 mmHg 95%
    04:00 +12°C° 0 mm 3 mps 738 mmHg 95%
    05:00 +12°C° 0 mm 3 mps 738 mmHg 95%
    06:00 +13°C° 0 mm 4 mps 739 mmHg 89%
    07:00 +15°C° 0 mm 4 mps 739 mmHg 84%
    08:00 +17°C° 0 mm 4 mps 739 mmHg 78%
    09:00 +17°C° 0.2 mm 5 mps 740 mmHg 77%
    10:00 +19°C° 0.2 mm 5 mps 740 mmHg 76%
    11:00 +20°C° 0.2 mm 5 mps 740 mmHg 75%
    12:00 +20°C° 0.7 mm 5 mps 740 mmHg 77%
    13:00 +20°C° 0.7 mm 5 mps 741 mmHg 79%
    14:00 +20°C° 0.7 mm 4 mps 741 mmHg 81%
    15:00 +20°C° 0.4 mm 4 mps 741 mmHg 81%
    16:00 +20°C° 0.4 mm 4 mps 741 mmHg 80%
    17:00 +20°C° 0.4 mm 4 mps 741 mmHg 80%
    18:00 +19°C° 0.1 mm 3 mps 741 mmHg 84%
    19:00 +17°C° 0.1 mm 2 mps 741 mmHg 88%
    20:00 +16°C° 0.1 mm 2 mps 741 mmHg 92%
    21:00 +15°C° 0 mm 2 mps 742 mmHg 93%
    22:00 +15°C° 0 mm 2 mps 742 mmHg 94%
    23:00 +14°C° 0 mm 2 mps 742 mmHg 95%

    21 Julio, Domingo

    Tiempo Temperatura Precipitaciones Viento Presión Humedad
    00:00 +14°C° 0 mm 2 mps 742 mmHg 95%
    01:00 +13°C° 0 mm 2 mps 742 mmHg 96%
    02:00 +13°C° 0 mm 2 mps 742 mmHg 96%
    03:00 +13°C° 0 mm 2 mps 742 mmHg 97%
    04:00 +13°C° 0 mm 2 mps 742 mmHg 97%
    05:00 +13°C° 0 mm 2 mps 743 mmHg 97%
    06:00 +15°C° 0 mm 2 mps 743 mmHg 92%
    07:00 +16°C° 0 mm 2 mps 743 mmHg 87%
    08:00 +18°C° 0 mm 2 mps 743 mmHg 82%
    09:00 +19°C° 0 mm 2 mps 743 mmHg 76%
    10:00 +20°C° 0 mm 2 mps 743 mmHg 70%
    11:00 +21°C° 0 mm 2 mps 743 mmHg 64%
    12:00 +21°C° 0 mm 3 mps 743 mmHg 64%
    13:00 +22°C° 0 mm 3 mps 743 mmHg 65%
    14:00 +22°C° 0 mm 4 mps 743 mmHg 65%
    15:00 +22°C° 0.1 mm 3 mps 743 mmHg 67%
    16:00 +22°C° 0.1 mm 3 mps 743 mmHg 69%
    17:00 +21°C° 0.1 mm 3 mps 743 mmHg 70%
    18:00 +20°C° 0 mm 2 mps 743 mmHg 77%
    19:00 +18°C° 0 mm 2 mps 743 mmHg 83%
    20:00 +16°C° 0 mm 1 mps 743 mmHg 89%
    21:00 +16°C° 0 mm 1 mps 743 mmHg 90%
    22:00 +15°C° 0 mm 1 mps 743 mmHg 91%
    23:00 +14°C° 0 mm 1 mps 743 mmHg 91%

    22 Julio, Lunes

    Tiempo Temperatura Precipitaciones Viento Presión Humedad
    00:00 +14°C° 0 mm 1 mps 743 mmHg 92%
    01:00 +14°C° 0 mm 1 mps 743 mmHg 92%
    02:00 +13°C° 0 mm 1 mps 743 mmHg 93%
    03:00 +13°C° 0 mm 1 mps 743 mmHg 93%
    04:00 +13°C° 0 mm 1 mps 743 mmHg 94%
    05:00 +13°C° 0 mm 1 mps 743 mmHg 94%
    06:00 +15°C° 0 mm 1 mps 743 mmHg 88%
    07:00 +18°C° 0 mm 1 mps 743 mmHg 82%
    08:00 +20°C° 0 mm 1 mps 743 mmHg 76%
    09:00 +21°C° 0 mm 1 mps 743 mmHg 69%
    10:00 +22°C° 0 mm 1 mps 743 mmHg 63%
    11:00 +24°C° 0 mm 1 mps 743 mmHg 56%
    12:00 +24°C° 0 mm 1 mps 743 mmHg 53%
    13:00 +25°C° 0 mm 1 mps 743 mmHg 49%
    14:00 +25°C° 0 mm 2 mps 743 mmHg 46%
    15:00 +25°C° 0 mm 2 mps 742 mmHg 50%
    16:00 +25°C° 0 mm 2 mps 742 mmHg 54%
    17:00 +24°C° 0 mm 2 mps 742 mmHg 58%
    18:00 +21°C° 0 mm 2 mps 742 mmHg 64%
    19:00 +19°C° 0 mm 2 mps 742 mmHg 69%
    20:00 +17°C° 0 mm 2 mps 742 mmHg 75%
    21:00 +16°C° 0 mm 2 mps 742 mmHg 76%
    22:00 +15°C° 0 mm 2 mps 742 mmHg 77%
    23:00 +15°C° 0 mm 2 mps 742 mmHg 79%
    Mostrar más